Probability
13 16 18 17 20 25 31 37 38 36 33 29 24 19 15 12 11 10 11 11 8 7 7 9 9 8 7 6 6 6 5 5 5 5 5 4 5 6 7 9 10 8 5
19 21 22 22 24 28 32 37 38 36 33 29 24 19 15 12 10 10 11 10 8 6 6 7 8 9 9 7 7 7 5 5 5 6 5 4 5 6 7 8 10 10 8
25 25 25 25 28 32 34 35 36 35 31 26 22 18 16 13 10 10 10 10 8 6 6 6 8 10 10 9 9 8 7 7 7 6 5 4 4 5 6 8 10 10 11
27 27 27 26 28 33 36 35 34 33 31 25 21 19 17 14 11 9 10 10 9 8 7 7 8 10 11 11 10 9 10 11 10 7 5 4 4 4 5 8 9 9 9
25 27 28 27 27 31 35 35 33 33 33 29 23 20 19 15 12 11 10 10 10 10 9 7 8 10 11 11 11 12 13 13 12 8 5 5 6 5 5 7 8 8 7
22 24 28 30 30 30 32 34 34 34 33 30 25 20 17 15 13 12 11 10 10 11 9 8 8 8 9 8 10 14 15 15 13 9 6 5 6 7 7 6 8 9 8
18 21 25 29 30 29 30 32 35 34 30 27 24 20 16 14 13 13 11 10 10 11 10 9 7 6 6 7 9 13 14 14 12 9 7 7 8 9 9 7 8 10 11
18 20 23 25 27 28 28 30 33 32 27 24 23 20 16 13 13 13 11 9 8 9 10 9 7 5 6 7 9 10 11 12 11 9 9 10 11 11 11 10 11 13 13
18 21 23 22 23 24 25 27 30 29 24 22 21 18 14 12 11 11 9 8 7 7 9 10 8 5 6 8 10 10 9 10 12 11 10 11 12 12 12 14 15 16 16
19 21 22 21 20 20 21 24 26 26 23 21 18 14 11 10 9 9 8 8 7 8 9 11 10 8 8 11 12 10 9 10 13 12 10 10 12 13 13 14 15 16 16
20 21 20 19 16 15 16 19 22 23 22 20 16 12 9 8 9 8 8 9 9 10 11 12 12 11 11 13 14 11 10 10 11 11 9 9 11 12 12 12 13 13 13
20 20 18 16 13 12 14 17 17 17 17 17 16 14 11 10 10 10 10 11 11 11 12 14 14 13 12 14 14 12 10 10 10 10 9 8 8 9 9 10 10 10 8
20 18 16 15 13 14 16 18 16 13 12 15 17 16 14 12 11 10 10 11 12 13 14 15 15 13 11 12 13 12 11 11 11 11 9 7 5 6 7 7 7 6 5
20 16 14 14 13 14 16 19 16 13 13 15 16 15 14 13 11 10 10 11 12 13 15 16 16 14 12 10 10 10 11 10 10 8 6 5 4 5 5 5 5 4 5
19 15 12 13 11 10 12 15 16 15 14 15 15 15 14 14 13 12 12 12 11 12 15 16 16 14 12 8 7 7 8 9 7 5 4 3 3 3 3 2 3 4 5
17 13 10 10 9 8 8 11 13 13 14 15 14 14 15 16 16 14 14 13 12 12 14 14 14 12 9 5 4 5 6 6 6 4 3 3 2 2 1 1 1 2 3
15 13 10 9 10 8 7 9 11 13 14 15 14 14 15 16 17 14 13 13 12 13 13 12 12 10 5 1 1 3 4 4 4 3 3 3 2 2 2 1 1 1 1
17 15 12 11 11 10 8 10 13 14 15 14 13 13 14 16 16 15 13 13 12 11 12 12 11 7 3 0 0 1 2 2 2 1 2 2 2 2 2 2 2 1 1
20 19 16 13 12 11 10 11 13 15 15 12 11 12 13 15 16 16 15 15 12 10 10 11 9 5 1 0 0 1 2 1 0 0 1 1 2 1 1 1 1 1 0
23 23 20 16 13 12 11 11 13 13 12 10 10 11 12 13 15 16 16 16 14 11 10 10 7 4 2 1 0 0 1 1 1 0 0 0 0 0 0 0 0 0 0
26 25 22 19 16 15 14 13 13 12 10 9 9 10 11 12 12 14 14 15 13 11 10 9 7 4 3 1 0 0 1 1 1 0 1 1 0 0 0 0 0 0 0
24 22 21 20 19 18 16 15 14 12 11 10 10 10 11 11 11 11 12 12 10 9 7 6 5 4 2 1 0 0 0 1 1 1 1 1 0 0 0 0 0 0 0
20 20 19 20 20 18 16 14 13 12 11 11 10 10 10 10 10 10 10 9 7 6 5 4 2 1 1 1 0 0 0 0 1 1 1 1 0 0 0 0 0 0 0
19 20 21 21 20 19 16 12 10 10 10 9 10 10 10 10 10 9 9 7 7 6 4 3 1 0 0 0 0 0 0 0 0 0 0 0 0 0 0 0 0 0 0
17 18 20 20 18 17 15 10 8 10 11 11 10 10 9 9 9 9 7 6 5 5 4 3 2 1 0 0 0 0 0 0 0 0 0 0 0 0 0 0 0 0 0
15 17 17 17 16 14 12 9 8 11 13 13 11 10 8 8 9 8 6 4 3 3 3 3 2 1 0 0 0 0 0 0 0 0 0 0 0 0 0 0 0 0 0
Wind_Speed
8 8 8 8 8 8 8 8 7 6 5 4 4 3 3 2 2 2 2 2 2 2 2 2 1 2 1 2 2 2 2 2 2 2 2 2 3 2 2 1 1 2 2
9 8 8 8 8 8 8 8 7 6 6 4 3 2 2 2 2 1 1 2 2 3 2 2 2 1 1 2 2 2 2 2 2 2 2 3 3 3 2 2 3 2 2
9 9 9 8 8 8 8 6 7 6 6 5 4 3 3 3 2 2 2 2 2 2 2 2 2 2 2 2 2 3 3 3 3 3 3 2 2 2 3 3 2 2 2
9 9 9 9 8 7 7 7 7 7 6 6 5 5 4 3 2 2 2 2 2 2 2 2 2 2 2 2 3 3 3 4 3 3 3 3 2 2 2 4 3 3 3
8 9 9 9 8 8 7 7 7 7 6 6 5 5 4 3 3 3 3 2 2 2 2 2 3 3 2 2 2 2 3 3 3 3 3 3 3 4 3 2 3 3 3
6 7 8 8 8 8 8 8 8 7 6 6 6 5 5 4 3 3 2 2 2 2 2 3 3 3 2 2 2 3 4 3 3 3 3 3 3 4 3 3 3 2 2
6 8 9 9 9 9 8 8 8 7 7 6 6 5 5 4 4 3 3 2 2 2 2 2 2 2 2 2 2 2 2 3 3 3 3 3 3 3 3 3 2 2 2
6 7 8 9 9 9 9 8 8 7 7 6 5 5 4 3 3 3 2 2 1 1 2 2 2 2 2 2 1 2 2 2 2 3 2 2 3 2 2 3 2 3 2
6 7 8 8 8 8 8 8 8 7 6 6 5 5 4 3 2 3 3 2 1 2 2 2 2 2 2 1 1 1 1 2 3 2 3 3 2 2 2 2 3 3 2
6 7 6 7 7 7 7 7 7 7 6 6 5 4 4 4 3 3 3 2 2 2 2 3 3 3 2 2 1 1 1 1 1 1 1 2 2 1 2 2 3 3 3
6 6 6 6 7 7 7 7 7 7 6 6 5 4 4 4 4 3 3 3 2 3 3 3 3 3 2 2 1 1 1 1 1 1 1 1 2 1 1 1 2 1 1
6 6 6 6 6 7 7 7 7 7 6 6 5 5 4 4 4 4 3 3 3 3 3 3 3 3 3 3 2 1 1 1 1 0 1 1 0 0 1 1 1 0 1
6 6 6 6 6 6 7 7 6 6 6 6 6 5 5 4 4 4 3 3 3 3 3 4 4 3 3 2 2 1 1 1 1 1 1 0 0 0 0 1 1 0 1
6 6 6 5 5 5 6 6 6 6 6 6 6 5 5 4 4 4 4 3 3 4 4 3 3 3 3 2 2 2 2 2 1 1 1 1 1 1 0 1 1 1 1
7 6 6 5 5 5 6 6 6 6 6 6 6 5 5 5 4 4 4 4 4 4 4 3 3 3 3 2 1 2 3 2 2 2 2 3 3 4 3 2 1 0 1
7 6 6 6 5 5 5 6 6 6 6 6 6 5 5 5 4 4 4 3 3 3 4 4 4 3 3 4 2 1 2 2 2 2 2 3 4 4 3 4 4 4 1
8 7 6 6 5 5 5 5 5 6 6 6 6 6 6 5 5 4 4 4 4 4 4 3 4 4 5 4 2 1 1 2 2 2 1 2 3 2 2 2 2 1 2
7 7 6 6 5 5 5 5 5 5 6 6 6 6 6 5 5 5 4 4 4 3 3 3 3 3 4 4 2 1 2 2 2 2 2 1 2 3 1 1 2 1 2
6 6 5 6 5 5 6 6 6 6 6 6 6 6 6 5 5 5 5 4 4 3 3 3 3 3 4 4 2 1 2 2 2 2 2 1 2 3 1 1 2 1 2
5 5 5 6 6 6 6 6 6 6 6 6 5 6 5 5 5 4 4 4 3 3 3 3 3 3 3 5 3 2 2 2 2 3 3 4 2 2 0 1 1 1 0
5 5 6 5 5 6 6 6 5 5 5 5 5 5 5 5 4 4 3 4 4 4 3 3 3 3 3 5 4 2 2 1 1 1 2 3 4 2 0 2 1 1 2
5 5 5 5 5 5 6 5 5 4 4 5 5 5 5 5 4 4 4 4 4 5 4 4 3 3 4 4 5 3 2 3 1 0 1 4 5 2 1 1 0 2 4
5 4 5 5 5 5 5 5 4 4 5 5 5 5 5 4 4 4 5 5 5 4 4 4 3 3 3 5 7 6 4 3 2 1 4 3 3 3 3 3 3 4 3
5 4 5 6 5 4 4 4 4 4 5 5 4 4 4 4 4 3 4 4 4 4 3 3 3 3 3 3 3 4 5 5 4 2 4 5 5 4 2 3 4 3 2
4 4 4 4 4 4 4 4 4 5 5 5 4 4 4 3 3 3 1 2 1 1 2 2 3 3 3 2 3 1 2 1 1 1 2 3 3 3 3 2 2 2 2
5 4 4 5 5 5 4 4 4 5 5 5 5 4 3 3 3 3 3 3 1 3 2 0 1 1 2 4 4 3 2 2 2 3 3 3 3 3 2 2 2 2 2
Wind_Direction
187 181 180 180 179 180 181 182 183 176 182 187 191 190 186 189 194 185 175 194 202 209 223 236 196 236 219 215 202 207 189 202 214 204 190 181 188 189 202 214 217 194 192
181 175 178 180 182 181 181 180 183 178 185 178 183 178 174 196 191 190 168 199 201 213 214 216 214 205 206 194 200 211 226 212 218 231 224 212 187 190 197 204 211 221 204
188 180 180 182 180 180 182 180 177 175 180 173 169 162 170 190 181 181 182 190 200 205 212 208 219 211 215 192 207 219 223 225 221 243 261 254 228 180 174 201 207 220 223
196 187 183 183 182 177 171 171 172 173 173 175 179 178 186 190 189 195 186 185 189 196 195 206 214 219 221 197 214 205 225 234 228 218 248 271 306 262 186 182 184 207 219
196 192 185 180 176 171 164 164 167 169 171 175 176 188 198 192 184 189 178 192 176 181 183 197 211 210 215 209 223 212 230 230 242 242 232 227 223 247 252 216 192 195 201
191 187 179 172 168 166 162 162 164 166 170 174 177 189 193 190 187 187 180 193 178 173 173 198 202 204 206 206 219 224 223 242 246 257 249 235 236 234 242 238 220 211 189
185 178 175 171 169 168 166 165 165 163 169 176 178 182 186 187 190 198 190 203 189 171 173 199 204 201 196 200 221 229 244 237 235 246 256 255 256 256 253 255 234 221 186
177 177 172 171 171 168 167 168 167 165 169 171 169 174 183 191 183 189 204 190 203 179 165 185 193 193 190 194 210 232 228 221 227 242 259 259 258 262 254 262 254 234 209
168 168 166 169 169 167 167 170 166 166 166 163 161 166 175 179 174 180 196 182 170 165 153 163 166 175 165 171 213 235 233 216 218 221 229 254 254 257 248 250 259 263 251
161 159 159 162 161 162 161 166 165 161 158 163 171 163 168 170 174 179 165 166 158 147 144 149 160 168 154 154 190 212 180 184 204 233 245 261 261 254 243 240 245 255 267
156 153 154 156 158 162 163 163 161 159 160 161 166 162 166 164 167 168 160 161 161 161 157 155 163 160 149 145 165 172 142 153 152 242 212 247 299 287 261 249 243 240 235
149 147 151 153 158 162 162 159 160 160 159 157 157 156 158 161 162 152 151 155 162 163 152 150 153 151 147 147 157 150 124 148 143 98 49 7 301 271 285 266 257 256 254
149 147 152 156 160 162 159 156 159 156 158 156 156 153 154 154 154 147 150 160 161 155 149 151 151 153 144 144 151 147 134 86 79 95 90 54 10 11 36 305 278 240 208
154 154 155 156 160 159 156 155 157 158 162 160 158 157 158 157 159 158 159 164 158 152 156 154 153 150 143 140 142 136 120 113 102 91 82 62 39 18 321 250 272 254 217
165 163 159 156 161 157 156 155 155 162 167 166 164 163 161 157 159 161 162 164 163 155 146 146 142 139 137 105 107 130 122 123 122 108 95 79 64 45 16 355 9 258 244
174 170 165 160 164 161 160 156 157 162 165 165 166 161 157 152 153 157 154 159 161 150 143 136 131 124 93 65 36 317 131 128 117 105 107 117 104 92 86 45 36 21 343
178 177 174 168 168 167 161 161 161 162 164 165 163 158 158 156 158 156 157 162 158 149 146 145 141 123 97 87 74 336 189 126 109 105 102 89 92 117 102 125 146 103 40
179 178 177 172 170 168 163 161 163 169 170 170 167 164 164 162 160 159 158 163 162 154 151 147 136 126 108 109 109 309 194 138 135 128 118 102 95 79 39 95 96 84 74
173 172 173 168 166 169 167 168 170 177 180 179 174 171 170 167 167 165 166 167 163 160 159 153 148 143 124 123 131 262 181 138 136 135 124 129 129 85 3 177 122 102 98
159 162 164 162 164 171 173 174 176 179 183 183 178 171 174 174 176 171 172 164 161 163 165 159 162 159 141 133 145 241 208 149 152 145 136 98 73 103 271 230 172 146 45
152 154 159 160 162 167 173 176 174 178 182 179 177 171 173 175 173 170 171 166 168 163 171 167 168 164 150 145 154 218 254 193 174 153 140 107 108 106 165 264 257 296 287
149 150 154 152 154 166 172 171 169 170 172 171 172 168 172 180 164 165 171 172 172 171 174 174 177 165 157 155 155 175 225 303 251 262 86 99 121 134 184 231 344 279 272
151 153 153 150 153 165 171 169 166 168 167 167 168 167 171 175 166 172 177 179 181 189 182 184 182 171 159 152 161 177 192 224 240 92 79 101 151 189 197 198 231 244 252
153 156 157 156 156 164 172 169 167 170 169 169 167 173 174 175 174 190 192 194 191 193 193 196 191 177 169 165 161 176 182 185 196 192 153 176 200 220 216 202 215 236 268
153 157 159 159 160 165 167 162 167 174 177 176 176 181 184 178 179 182 190 216 187 245 238 214 198 187 185 142 124 199 200 208 144 237 213 208 205 211 206 205 215 235 235
155 158 159 158 160 166 164 161 169 175 184 185 184 185 187 179 187 174 154 73 70 95 90 344 265 161 125 135 149 172 184 180 193 233 230 228 229 234 232 231 226 232 248